Dewpoint
-3 -5 -4 -6 -5 -6 -9 -12 -17 -16 -18 -18 -13 -13 -11 -11 -13 -13 -14 -13 -14 -13 -14 -13 -13 -12 -14 -11 -13 -12 -12 -10 -10 -14 -9 -10 -11 -11 -11 -8 -11 -10 -8 -8
-6 -4 -4 -6 -5 -6 -8 -8 -11 -16 -18 -18 -16 -14 -14 -13 -14 -14 -14 -13 -13 -13 -14 -12 -12 -13 -15 -15 -14 -13 -11 -10 -11 -12 -9 -11 -10 -12 -13 -12 -11 -10 -8 -9
-2 -3 -5 -6 -5 -6 -7 -9 -12 -12 -14 -14 -14 -13 -14 -13 -13 -13 -13 -14 -13 -13 -13 -12 -12 -12 -14 -14 -15 -13 -13 -7 -7 -8 -9 -10 -11 -13 -13 -12 -9 -10 -11 -12
-4 -4 -4 -5 -5 -4 -4 -8 -10 -11 -11 -12 -12 -12 -12 -12 -12 -13 -12 -12 -12 -12 -13 -12 -13 -13 -14 -15 -15 -11 -10 -8 -11 -13 -12 -12 -13 -14 -13 -13 -12 -11 -12 -13
-5 -5 -4 -4 -6 -6 -5 -6 -7 -7 -9 -10 -10 -10 -10 -11 -11 -12 -12 -10 -13 -11 -8 -12 -14 -14 -14 -13 -14 -11 -9 -8 -10 -11 -13 -12 -12 -14 -15 -14 -14 -13 -13 -13
-4 -5 -6 -5 -6 -5 -4 -5 -5 -5 -7 -8 -8 -9 -10 -10 -11 -11 -12 -12 -11 -11 -12 -12 -13 -13 -12 -13 -10 -12 -11 -11 -9 -11 -12 -12 -10 -13 -14 -14 -15 -14 -13 -14
-4 -4 -4 -4 -4 -4 -5 -5 -5 -5 -8 -8 -9 -10 -9 -10 -10 -8 -10 -9 -8 -10 -12 -13 -12 -12 -12 -12 -12 -12 -9 -11 -10 -11 -10 -10 -12 -15 -16 -15 -15 -15 -15 -15
-4 -5 -5 -5 -5 -5 -5 -6 -5 -5 -7 -10 -10 -9 -7 -6 -8 -8 -8 -8 -8 -8 -8 -13 -13 -14 -12 -11 -11 -11 -12 -11 -8 -10 -11 -13 -13 -15 -15 -15 -14 -16 -15 -15
-6 -6 -6 -5 -5 -6 -6 -6 -6 -5 -5 -10 -8 -6 -6 -7 -9 -10 -8 -8 -7 -7 -10 -11 -11 -14 -13 -11 -9 -10 -9 -8 -9 -10 -10 -12 -14 -17 -16 -16 -13 -16 -16 -16
-6 -6 -7 -7 -7 -7 -7 -6 -6 -6 -6 -6 -6 -7 -7 -7 -8 -8 -11 -10 -8 -8 -9 -11 -12 -14 -10 -12 -10 -11 -10 -10 -9 -10 -10 -14 -17 -17 -16 -12 -14 -17 -16 -16
-7 -7 -7 -7 -7 -7 -6 -6 -7 -6 -6 -7 -7 -7 -8 -8 -8 -9 -9 -9 -9 -10 -9 -12 -12 -11 -11 -13 -15 -14 -13 -12 -11 -12 -11 -11 -17 -17 -15 -16 -16 -16 -17 -17
-7 -7 -7 -7 -7 -7 -9 -11 -9 -7 -7 -8 -9 -9 -9 -9 -9 -8 -9 -11 -10 -11 -11 -11 -11 -11 -13 -13 -11 -17 -13 -16 -14 -15 -15 -17 -17 -17 -17 -17 -17 -17 -17 -17
-8 -8 -7 -7 -9 -11 -13 -11 -8 -7 -7 -9 -10 -10 -10 -9 -9 -9 -8 -9 -9 -9 -12 -11 -11 -12 -13 -12 -15 -16 -18 -18 -17 -17 -18 -17 -17 -17 -17 -17 -17 -17 -17 -17
-8 -8 -9 -12 -11 -14 -14 -9 -9 -9 -8 -10 -11 -11 -11 -10 -9 -9 -9 -9 -9 -11 -12 -12 -13 -13 -15 -16 -17 -18 -18 -18 -18 -18 -18 -17 -17 -17 -18 -18 -17 -17 -18 -18
-9 -8 -11 -11 -11 -12 -10 -9 -9 -9 -9 -10 -11 -11 -12 -11 -10 -9 -9 -9 -10 -12 -13 -14 -15 -16 -17 -18 -20 -19 -19 -19 -17 -17 -18 -18 -17 -18 -18 -18 -18 -18 -18 -18
-9 -9 -9 -10 -12 -15 -10 -9 -11 -13 -10 -10 -11 -12 -12 -12 -12 -11 -10 -11 -12 -15 -15 -16 -16 -16 -17 -18 -19 -18 -19 -19 -18 -18 -18 -18 -17 -18 -18 -18 -18 -18 -18 -18
-9 -8 -9 -11 -15 -14 -15 -14 -18 -15 -10 -10 -11 -12 -13 -12 -12 -13 -14 -14 -16 -15 -15 -17 -18 -18 -19 -19 -19 -19 -19 -18 -18 -18 -18 -18 -18 -18 -18 -18 -18 -18 -18 -19
-17 -9 -9 -10 -12 -14 -14 -14 -19 -14 -11 -13 -14 -14 -13 -14 -13 -12 -16 -17 -17 -17 -16 -17 -18 -19 -21 -19 -19 -19 -18 -18 -18 -18 -18 -18 -18 -18 -18 -19 -19 -19 -19 -19
-13 -9 -10 -14 -17 -15 -14 -12 -18 -20 -16 -16 -17 -16 -15 -15 -13 -12 -14 -16 -16 -17 -19 -19 -21 -22 -20 -19 -19 -19 -19 -19 -19 -18 -18 -18 -18 -18 -18 -18 -19 -19 -19 -19
-12 -11 -15 -22 -21 -19 -16 -19 -23 -23 -22 -20 -18 -18 -16 -16 -15 -14 -14 -15 -16 -17 -18 -21 -21 -20 -19 -19 -19 -19 -19 -19 -19 -19 -19 -18 -19 -19 -19 -19 -19 -19 -19 -19
-17 -19 -24 -26 -27 -25 -27 -23 -20 -21 -20 -19 -19 -19 -18 -17 -16 -15 -15 -16 -17 -18 -19 -21 -20 -21 -20 -19 -19 -19 -19 -19 -19 -19 -19 -19 -19 -19 -19 -19 -19 -19 -19 -19
-23 -26 -30 -29 -27 -26 -24 -23 -23 -22 -20 -19 -19 -19 -19 -17 -16 -16 -16 -17 -20 -18 -22 -22 -21 -20 -19 -20 -20 -20 -20 -20 -20 -20 -20 -20 -20 -20 -19 -19 -19 -20 -19 -19
-33 -30 -27 -26 -23 -22 -22 -21 -22 -21 -21 -19 -19 -20 -18 -17 -17 -17 -19 -19 -18 -22 -21 -21 -21 -19 -19 -20 -19 -20 -20 -20 -20 -20 -20 -20 -20 -20 -20 -20 -20 -19 -19 -19
-27 -25 -22 -22 -21 -21 -21 -21 -21 -21 -20 -19 -19 -19 -19 -19 -19 -20 -20 -20 -23 -21 -21 -21 -21 -20 -20 -20 -20 -20 -20 -20 -21 -21 -21 -21 -20 -20 -20 -20 -20 -19 -19 -19
-24 -24 -22 -21 -20 -21 -21 -21 -21 -20 -20 -20 -20 -20 -22 -23 -22 -22 -23 -23 -21 -22 -21 -21 -21 -20 -20 -20 -21 -21 -21 -21 -20 -20 -20 -20 -20 -20 -20 -20 -19 -19 -20 -20
-23 -21 -21 -21 -21 -21 -21 -21 -21 -21 -21 -21 -24 -24 -24 -23 -23 -23 -22 -23 -22 -22 -21 -20 -20 -20 -21 -21 -21 -20 -20 -20 -20 -20 -20 -20 -20 -20 -20 -20 -20 -20 -20 -20
-22 -21 -20 -20 -20 -20 -21 -21 -21 -23 -22 -22 -24 -23 -23 -25 -23 -22 -22 -22 -22 -21 -21 -20 -20 -21 -21 -21 -20 -20 -20 -20 -20 -20 -20 -20 -20 -20 -20 -20 -20 -20 -20 -20
Wind_Speed
16 18 14 16 18 18 19 7 3 5 4 3 1 0 1 1 2 2 3 3 6 6 4 6 5 7 6 7 4 7 4 4 9 12 4 2 3 2 2 4 5 8 6 1
10 14 17 18 14 16 19 11 4 4 4 2 1 1 1 2 4 4 3 4 7 6 5 5 7 7 6 7 6 2 3 3 6 4 4 2 1 2 3 8 7 7 4 3
16 13 16 14 11 14 16 5 3 2 5 4 1 2 2 2 4 6 6 5 6 6 8 9 6 6 5 6 10 13 14 5 8 9 5 1 2 4 5 5 5 6 1 6
13 10 14 13 12 15 10 2 1 0 2 2 3 4 2 6 4 6 7 5 12 9 6 6 9 10 10 9 12 3 2 6 5 3 3 5 3 0 3 3 6 3 3 2
10 12 14 13 16 15 10 4 3 1 4 3 5 5 5 8 9 6 7 11 14 11 10 10 8 9 11 11 5 4 3 2 4 5 8 6 3 4 2 3 5 2 6 3
13 14 15 15 13 11 3 3 6 3 4 3 4 4 9 9 5 8 17 15 11 13 18 15 14 12 12 10 5 8 5 3 3 5 8 5 8 2 3 2 5 5 4 8
14 13 13 12 12 11 9 9 7 3 9 7 8 9 13 12 14 16 21 20 13 6 6 5 6 7 9 10 14 17 7 8 5 2 8 5 5 4 3 6 4 7 7 11
14 15 18 16 14 13 17 18 12 8 7 13 15 18 19 13 13 17 17 18 19 12 3 3 3 3 3 3 1 9 15 9 3 4 7 2 5 2 1 2 2 8 10 13
15 12 14 13 12 14 16 18 19 10 9 6 14 7 2 4 8 6 2 3 7 7 5 3 3 3 2 3 3 3 6 3 5 3 4 3 4 2 1 1 3 9 12 13
14 14 16 15 14 15 16 12 11 8 9 8 3 1 5 4 3 3 1 4 4 7 4 4 4 4 0 3 1 0 2 1 7 6 2 3 5 5 1 3 3 8 10 11
16 15 14 13 14 14 13 8 8 10 7 8 4 2 2 3 4 4 3 3 3 3 5 3 2 3 2 3 3 3 2 2 2 2 2 3 9 2 3 3 3 6 8 10
15 14 14 15 14 15 15 13 9 10 8 3 1 2 4 6 10 4 6 0 2 3 2 1 2 2 2 2 3 4 1 3 2 4 3 2 6 8 4 4 4 7 8 10
14 14 15 14 14 11 11 7 5 9 6 2 1 4 5 5 7 10 3 3 3 3 3 3 2 4 3 1 3 3 3 5 2 3 3 4 5 4 6 6 5 6 7 8
15 15 15 13 9 12 9 5 4 7 3 2 5 6 7 8 1 6 5 4 7 9 6 6 4 3 7 3 5 4 4 5 2 3 3 1 3 5 6 7 6 6 7 8
15 15 15 7 7 10 7 1 8 1 3 3 5 7 14 11 6 7 8 10 11 7 5 5 3 4 4 4 4 5 7 3 2 3 2 2 1 2 7 7 9 9 9 9
14 14 12 7 4 6 1 2 6 11 2 4 3 3 13 13 16 14 11 11 11 11 7 6 5 6 4 3 3 5 5 6 5 2 4 1 3 2 6 7 8 8 10 10
10 8 7 5 7 2 5 6 16 12 3 3 5 3 8 9 10 13 15 17 14 9 6 6 5 7 6 3 3 9 6 5 7 7 3 2 5 3 6 7 7 7 9 9
3 4 4 10 8 8 7 11 16 9 5 8 3 3 3 17 7 3 6 6 8 11 6 5 4 6 7 4 6 8 9 4 9 7 5 4 4 4 5 6 7 7 8 8
2 1 3 4 4 5 7 7 9 20 12 6 6 5 3 14 10 5 4 5 4 5 5 5 4 4 6 5 7 9 10 7 9 6 5 5 5 6 6 7 7 8 8 9
2 2 2 5 6 5 4 2 4 11 12 9 8 12 3 9 9 6 3 5 3 3 4 5 4 4 5 10 8 9 9 8 8 7 8 7 8 8 7 8 8 8 9 10
2 3 5 6 8 5 7 7 10 10 6 10 9 10 9 9 5 4 7 2 3 3 3 3 3 2 8 12 10 10 9 8 8 7 6 7 7 8 8 8 7 7 8 8
8 10 11 9 11 11 9 4 6 7 3 11 10 12 9 7 6 5 7 3 3 4 2 3 3 3 9 11 10 12 10 8 9 9 8 9 7 7 6 6 8 9 9 9
8 6 7 9 11 13 7 8 3 4 10 8 16 13 8 7 9 4 5 4 4 2 3 3 3 9 10 10 10 11 11 10 10 9 9 9 9 6 7 8 9 9 8 8
9 9 8 5 5 5 2 4 7 8 9 16 16 6 5 5 5 5 4 3 3 3 3 2 6 11 12 11 11 12 13 12 13 12 11 11 11 9 8 9 10 10 9 9
9 9 6 5 4 4 9 9 8 6 9 10 6 1 4 7 3 5 3 4 4 4 3 4 13 13 15 13 13 13 13 14 15 14 13 12 12 11 10 9 10 10 10 11
10 13 5 8 6 11 13 12 10 10 8 3 3 3 3 6 3 5 5 3 3 3 8 12 13 15 14 13 14 14 15 15 15 13 13 13 12 12 12 10 10 11 11 13
8 8 13 7 5 7 11 14 14 10 5 4 4 5 3 2 3 4 3 2 5 11 12 12 13 14 14 15 15 15 16 16 14 13 12 12 11 11 10 11 11 12 12 13
Wind_Direction
315 330 329 329 340 345 351 354 287 327 329 204 83 164 81 283 209 211 224 252 247 243 220 264 259 253 232 193 267 278 303 287 282 301 59 95 81 52 327 285 303 295 268 110
343 349 337 333 333 342 351 329 282 334 17 268 123 133 248 253 212 212 204 232 225 214 242 250 244 251 252 251 273 270 181 232 285 197 159 150 66 54 320 271 265 256 287 63
330 327 333 342 336 339 347 337 297 358 54 102 132 238 236 235 221 240 225 246 232 227 243 228 259 246 254 242 278 283 276 246 246 279 329 73 204 4 323 293 274 327 334 320
317 322 326 333 328 330 337 292 261 65 293 210 201 194 226 239 251 223 208 224 232 222 247 243 244 258 270 260 282 217 264 255 221 230 174 129 119 344 333 32 351 290 25 330
331 319 312 311 322 322 317 269 269 289 274 259 230 214 214 233 237 211 231 234 254 222 224 221 268 273 272 272 227 240 160 297 218 222 189 177 145 94 72 14 353 325 327 290
325 319 315 315 319 325 313 337 298 236 244 204 208 221 232 244 272 251 257 272 270 235 239 238 254 261 259 247 232 241 229 246 234 266 191 188 230 111 81 104 30 323 347 338
324 323 327 332 314 323 331 320 316 231 282 249 248 258 241 244 252 265 277 275 239 246 191 219 253 245 253 248 247 236 220 215 224 177 159 237 84 67 77 119 54 13 344 341
316 314 311 304 309 314 309 303 293 255 267 265 268 258 248 258 273 276 279 280 232 201 195 215 264 208 213 194 279 217 219 211 170 210 219 88 179 46 14 335 100 12 350 347
321 328 314 314 321 309 291 284 286 259 309 305 287 275 193 290 283 261 237 332 207 176 170 187 223 241 318 195 161 81 185 245 222 168 226 242 75 37 345 267 183 2 354 353
321 321 317 321 312 305 298 304 300 276 262 253 188 262 282 209 253 267 211 169 169 172 188 198 226 230 325 251 168 345 143 111 226 215 186 105 4 323 236 244 57 351 352 353
322 329 331 327 315 318 318 307 301 263 274 277 282 246 230 301 238 266 144 178 178 174 202 216 180 230 133 98 46 16 2 315 101 153 179 182 1 156 298 21 346 349 355 353
336 338 332 322 320 316 310 316 302 269 254 295 253 72 341 287 254 271 196 304 148 148 154 172 154 145 119 147 136 37 176 11 37 4 71 71 35 68 51 25 360 0 355 351
340 334 326 325 327 322 321 313 298 272 197 82 137 328 309 308 263 209 204 179 177 149 113 113 87 92 322 90 78 117 90 19 80 194 97 80 51 51 34 22 13 1 357 353
340 333 324 331 325 336 338 310 286 255 239 138 55 55 38 4 277 185 177 200 158 133 94 70 61 82 25 65 86 70 359 337 28 91 109 140 59 29 12 9 8 5 7 1
339 324 328 336 322 326 350 34 74 92 249 117 139 56 40 44 72 124 141 143 135 94 71 57 63 72 93 74 86 51 0 2 5 63 8 333 38 14 9 5 359 358 357 360
332 318 318 330 328 339 360 273 8 8 75 119 119 85 41 54 58 75 90 95 88 83 80 75 71 39 92 84 73 17 14 33 23 337 343 74 17 12 3 356 353 356 348 352
319 301 310 79 38 24 86 55 344 353 134 97 120 96 12 41 46 51 57 73 67 73 81 62 60 35 57 61 65 352 6 23 28 27 32 56 25 360 2 354 350 350 351 352
351 260 176 97 39 61 65 26 13 9 109 69 44 8 39 16 5 50 39 67 54 42 80 72 58 46 57 67 16 16 29 29 22 24 30 28 12 5 2 360 355 348 353 1
34 170 25 57 36 43 19 350 9 44 66 82 46 8 353 350 3 17 54 58 71 56 64 52 67 43 48 10 1 10 10 8 352 1 11 9 9 2 350 351 349 349 349 353
111 32 61 59 12 39 41 345 35 32 37 50 38 358 344 346 348 30 54 45 70 71 57 76 69 76 42 21 12 3 0 357 353 360 353 348 340 339 337 339 335 334 336 342
112 75 68 59 44 46 45 45 36 2 43 16 353 359 340 360 357 5 25 67 44 81 46 78 72 60 12 5 10 2 356 356 352 342 329 326 328 333 330 330 326 324 327 329
89 102 87 41 31 33 61 26 12 31 32 353 353 341 330 322 341 358 11 71 47 74 45 69 73 19 358 2 6 0 2 357 348 349 341 333 331 321 331 323 323 320 322 323
75 59 53 20 10 38 43 359 357 347 349 351 336 333 337 340 3 41 29 57 58 75 49 66 43 349 348 351 353 351 355 353 345 342 336 340 335 319 308 317 326 322 319 318
57 46 34 51 22 30 357 318 304 295 302 324 331 325 358 354 18 11 63 37 46 64 58 63 0 352 348 341 339 340 337 335 337 334 331 328 328 324 318 312 317 323 322 318
64 47 48 45 346 345 334 333 320 309 309 325 332 307 13 12 50 24 42 43 54 41 29 343 332 332 331 327 326 329 332 332 334 332 327 323 320 318 316 308 312 312 311 315
61 45 46 3 360 353 2 356 346 354 336 352 14 40 57 44 23 44 25 50 38 349 330 323 325 326 331 334 334 333 331 332 332 332 330 326 323 319 317 313 308 307 305 308
55 43 33 29 8 344 353 359 349 8 16 36 35 47 17 308 49 36 21 23 316 316 320 323 325 324 327 331 330 331 329 330 332 329 331 328 326 326 326 324 322 314 312 307
Height
1548 1545 1542 1540 1537 1534 1529 1527 1526 1524 1523 1524 1525 1522 1527 1528 1526 1528 1528 1528 1527 1527 1529 1529 1531 1530 1528 1529 1529 1528 1528 1526 1519 1514 1526 1525 1525 1529 1527 1518 1497 1497 1498 1493
1547 1545 1541 1538 1536 1533 1531 1528 1524 1523 1521 1518 1522 1527 1526 1526 1525 1525 1526 1525 1525 1526 1526 1529 1525 1525 1526 1526 1527 1526 1528 1525 1518 1510 1526 1526 1527 1530 1532 1528 1522 1509 1502 1500
1544 1542 1541 1537 1533 1532 1532 1528 1526 1523 1520 1522 1523 1524 1523 1523 1523 1523 1524 1524 1524 1524 1523 1524 1522 1523 1524 1525 1524 1524 1521 1520 1518 1512 1516 1523 1526 1531 1533 1527 1509 1508 1515 1514
1543 1541 1538 1536 1533 1530 1530 1528 1525 1524 1519 1519 1523 1524 1522 1520 1521 1522 1521 1520 1519 1520 1520 1520 1519 1519 1520 1521 1520 1521 1521 1515 1517 1517 1520 1525 1530 1536 1535 1530 1529 1517 1522 1521
1540 1537 1535 1533 1531 1528 1528 1528 1526 1524 1523 1522 1522 1522 1519 1517 1515 1517 1516 1516 1512 1515 1517 1515 1515 1516 1517 1516 1517 1517 1519 1515 1516 1514 1520 1521 1527 1530 1533 1533 1531 1526 1526 1521
1538 1535 1533 1531 1528 1526 1524 1524 1524 1522 1518 1519 1519 1515 1513 1512 1514 1513 1511 1510 1510 1509 1508 1512 1512 1513 1514 1514 1515 1513 1515 1513 1514 1506 1513 1520 1520 1531 1533 1535 1536 1533 1526 1528
1535 1533 1531 1528 1526 1523 1523 1521 1521 1520 1512 1513 1511 1509 1510 1508 1509 1509 1507 1507 1507 1505 1506 1508 1509 1509 1509 1510 1509 1510 1510 1511 1509 1508 1513 1515 1530 1532 1532 1535 1537 1536 1533 1530
1532 1530 1527 1525 1524 1522 1517 1516 1517 1514 1506 1504 1504 1503 1503 1504 1505 1505 1502 1499 1500 1500 1504 1504 1503 1502 1504 1504 1506 1506 1506 1505 1508 1505 1504 1524 1531 1537 1536 1537 1536 1538 1535 1531
1527 1525 1523 1520 1518 1517 1514 1511 1510 1507 1505 1498 1500 1499 1501 1501 1500 1499 1498 1497 1497 1498 1501 1501 1503 1497 1495 1496 1503 1505 1505 1505 1503 1512 1502 1500 1529 1538 1540 1540 1526 1539 1537 1534
1524 1522 1518 1514 1513 1511 1508 1507 1506 1505 1502 1498 1499 1499 1499 1499 1499 1496 1497 1497 1498 1499 1498 1496 1496 1495 1501 1495 1497 1504 1503 1507 1502 1500 1505 1526 1539 1540 1540 1530 1538 1540 1539 1536
1520 1517 1513 1510 1507 1505 1503 1502 1502 1503 1499 1496 1496 1496 1497 1497 1497 1494 1496 1498 1496 1498 1496 1494 1495 1496 1501 1509 1525 1522 1515 1513 1510 1519 1512 1518 1541 1539 1534 1544 1542 1541 1539 1537
1514 1512 1510 1506 1504 1502 1499 1499 1498 1498 1498 1496 1495 1495 1495 1495 1494 1495 1493 1494 1493 1494 1494 1499 1498 1499 1506 1512 1509 1531 1523 1536 1528 1537 1537 1545 1545 1544 1544 1544 1543 1541 1540 1537
1510 1508 1505 1502 1501 1498 1497 1495 1495 1494 1492 1494 1495 1495 1495 1493 1491 1491 1492 1493 1493 1494 1495 1498 1502 1508 1513 1509 1525 1530 1538 1540 1536 1538 1546 1546 1546 1546 1545 1544 1543 1541 1540 1537
1507 1504 1501 1500 1499 1497 1494 1493 1492 1493 1493 1494 1499 1496 1494 1492 1490 1489 1490 1491 1492 1494 1496 1501 1507 1512 1521 1528 1533 1535 1544 1541 1543 1544 1546 1547 1547 1546 1545 1543 1542 1541 1539 1537
1503 1501 1500 1498 1497 1495 1493 1492 1492 1492 1494 1493 1497 1497 1497 1493 1491 1489 1489 1491 1492 1495 1501 1507 1517 1522 1526 1534 1537 1545 1549 1548 1544 1543 1548 1547 1547 1546 1545 1543 1541 1540 1538 1536
1502 1499 1497 1496 1496 1494 1493 1492 1492 1492 1491 1492 1496 1500 1499 1497 1494 1492 1491 1492 1494 1498 1507 1517 1524 1527 1529 1535 1544 1553 1551 1550 1549 1549 1547 1547 1547 1546 1545 1543 1541 1540 1538 1535
1499 1497 1495 1495 1494 1494 1493 1499 1496 1491 1491 1492 1497 1500 1502 1499 1499 1498 1499 1498 1501 1505 1514 1523 1529 1531 1532 1541 1548 1554 1552 1551 1550 1549 1548 1548 1547 1546 1544 1543 1541 1539 1537 1535
1496 1496 1494 1493 1494 1495 1496 1496 1494 1491 1490 1494 1501 1505 1505 1505 1503 1503 1503 1505 1508 1514 1522 1529 1533 1536 1540 1551 1557 1555 1553 1552 1551 1549 1549 1548 1547 1546 1544 1542 1540 1539 1537 1535
1495 1495 1495 1495 1496 1497 1499 1498 1497 1495 1497 1505 1515 1517 1512 1511 1508 1507 1508 1509 1516 1523 1529 1535 1538 1546 1554 1560 1558 1556 1554 1553 1552 1550 1549 1548 1547 1545 1544 1542 1540 1538 1536 1534
1495 1495 1496 1498 1500 1499 1500 1500 1499 1500 1508 1517 1526 1525 1520 1519 1513 1510 1512 1514 1519 1528 1538 1540 1547 1559 1562 1560 1559 1557 1555 1553 1551 1550 1549 1547 1546 1545 1543 1541 1540 1538 1536 1533
1495 1496 1499 1502 1501 1502 1502 1509 1515 1522 1528 1533 1533 1531 1528 1523 1520 1517 1518 1520 1524 1531 1541 1543 1554 1561 1563 1561 1559 1557 1554 1553 1551 1550 1548 1547 1545 1544 1542 1540 1539 1537 1535 1533
1496 1498 1502 1504 1507 1510 1517 1535 1536 1539 1543 1541 1538 1536 1533 1528 1525 1524 1525 1526 1531 1541 1544 1549 1559 1565 1564 1561 1559 1557 1554 1553 1551 1549 1547 1545 1543 1542 1540 1539 1538 1535 1533 1531
1499 1502 1508 1518 1529 1536 1549 1556 1551 1549 1548 1545 1544 1540 1536 1533 1531 1530 1531 1534 1542 1545 1550 1560 1566 1566 1564 1562 1560 1557 1555 1553 1550 1548 1546 1543 1541 1539 1539 1537 1535 1533 1531 1530
1505 1517 1534 1543 1557 1560 1561 1560 1557 1554 1550 1547 1544 1541 1540 1538 1536 1538 1540 1548 1548 1554 1559 1566 1567 1566 1563 1561 1559 1557 1554 1552 1549 1546 1543 1541 1539 1537 1536 1534 1533 1531 1529 1528
1520 1533 1557 1563 1565 1563 1560 1558 1555 1553 1550 1547 1544 1544 1543 1543 1544 1548 1550 1554 1560 1563 1567 1567 1566 1565 1562 1559 1557 1555 1552 1549 1546 1544 1541 1539 1537 1535 1534 1532 1531 1529 1527 1525
1540 1557 1565 1567 1565 1563 1559 1556 1553 1551 1549 1547 1547 1547 1549 1556 1558 1559 1568 1567 1571 1571 1570 1568 1566 1563 1560 1557 1555 1552 1549 1547 1544 1541 1539 1536 1534 1532 1530 1529 1528 1526 1524 1522
1563 1573 1572 1570 1568 1566 1562 1558 1554 1551 1550 1550 1550 1557 1566 1566 1567 1573 1573 1575 1574 1571 1569 1567 1564 1561 1558 1555 1553 1550 1547 1544 1541 1539 1537 1534 1532 1530 1528 1526 1525 1523 1521 1519